星链-32458 (STARLINK-32458)

导读 | 豆包AI

STARLINK-32458是美国于2024年11月14日发射的一颗星链卫星,星链计划是由太空探索技术公司(SpaceX)打造的低轨卫星星座,旨在为全球提供高速互联网接入服务。该卫星加入星链星座后,将进一步扩充星座规模,提升全球网络覆盖能力与服务稳定性。

基本信息
目录编号:
61962
目录名称:
STARLINK-32458
国际标识:
2024-210D
轨道中心:
EARTH
卫星名称:
星链-32458
卫星全名:
星链-32458 (STARLINK-32458)
卫星状态:
在轨 (已飞行486 天)
发射日期:
2024-11-14 UTC
国别 :
美国 (US)
星等 :
--
轨道信息
数据来源 国际轨道数据
星历时间: 2026-03-14T20:21:19+0800
23小时前
查看轨道信息
半长轴: 6861.051km
偏心率: 0.000169
轨道倾角: 43.001°
近地点辐角 268.774°
升交点赤经 138.237°
平近点角 91.292°
近地点: 481.754km
远地点: 484.074km
周期: 94.264分钟
每日圈数: 15.276252
详细信息
固有亮度:
5
最大亮度:
2.5
卫星平台:
Starlink V1.0
覆盖范围:
全球
运营商:
太空探索技术公司
运营商所在国:
美国
制造商(研发单位):
太空探索技术公司
制造商所在国:
美国
使用方式:
暂无
卫星简介
Starlink 计划是 SpaceX 推出的全球卫星互联网项目,通过发射低轨道卫星,为全球尤其是偏远地区提供高速、低延迟的互联网服务。自 2019 年起,Starlink 已部署数千颗卫星,旨在缩小全球数字鸿沟,推动互联网普及。该项目还为军事、航空等行业提供通信支持,带来广泛经济效益。
2D轨道图
3D轨道图
轨道高度分析图
轨道倾角分析图
轨道综合分析图
查看轨道综合分析图